FENGYUN 1C DEB, 30297

Orbit data source: Space-Track

FENGYUN 1C DEB, 30297 is space debris in SSO originally from a launch on Mon, 10 May 1999 UTC launched from the Taiyaun Space Center, China (TSC). Fengyun 1C debris stems from the Chinese weather satellite Fengyun-1C, which was intentionally destroyed by a Chinese anti-satellite missile in 2007. This event dramatically increased the amount of space debris, with thousands of trackable fragments posing hazards to satellites and human spaceflight. The Fengyun 1C debris cloud has become a focal point in discussions about space sustainability and the need for international regulations to prevent the creation of new debris.

Loading next visibility...
Identifier
30297, 1999-025ZJ
Orbit
SSO
Country
Flag of CNCN / PRC
Related business
Manufacturer
Unknown
Mission
Spacecraft
Bus & Motor
Unknown
Mass
Unknown
Launch date (UTC)
1999-05-10 (27 years ago)
Launch vehicle
Unknown
Launch site
Taiyaun Space Center, China (TSC)
Object type
Payload
Rocket body
Debris
Shape & HBR
Unknown shape, 0.1 m
Radar Cross Section
Small (<0.1 m²)

Expand to show TLE details & history
Last TLE update: 10 hours ago

TLE from 10 hours ago
0 FENGYUN 1C DEB
1 30297U 99025ZJ  26146.14748538  .00013475  00000-0  27976-2 0  9998
2 30297  98.8244 103.6381 0365839 359.5677  13.5987 14.25774367974926
Epoch: 2026-05-26T03:32Z
TLE epoch observation values (Epoch: 2026-05-26T03:32:22.736Z)
Latitude
13.99615°
Longitude
164.61287°
Altitude
553.137 km
Speed
7.72 km/s
True Right ascension
06h 45m 43s
True Declination
13° 54' 48"
Sunlit
Object was in daylight at epoch
Visualization orbit readout
Latitude
Unknown
Longitude
Unknown
Altitude
Unknown
Speed
Unknown
Apparent Right ascension
Unknown
Apparent Declination
Unknown
Sunlit
N/A
Visualization observer readout
Local Sidereal Time
23:13:23
Azimuth
Unknown
Elevation
Unknown
Doppler factor
Unknown
Orbital elements
Apogee altitude
1,065.756 km
Perigee altitude
540.325 km
Semi-major axis
7,181.178 km
Eccentricity
0.03658
Inclination
98.8244°
RAAN
103.6381°
Arg. of periapsis
359.5677°
True anomaly
14.63007°
Mean anomaly
13.5987°
Eccentric anomaly
14.10969°
Mean motion
3.56656 °/min
Orbital period
100.94 mins
BSTAR
0.0027976
Loading maneuver chart data...
Computing Atmospheric mass density...

Documentation

Showing up to 5 results
|